[[{"header":{"parameterUnit":"m.s-1","parameterCategory":1,"la1":30.2991,"la2":30.254,"lo1":-89.0895,"lo2":-89.0444,"dy":0.0017,"dx":0.0017,"nx":28,"ny":28,"refTime":"2025-05-16T21:00:00:Z","depth":0,"parameterNumber":2,"parameterNumberName":"U-component_of_WINDS"},"data":[0,0,0,0,0,0,0,0,0,0,0,0,0,0,0,0,0,0,0,0,0,0,0,0,0,0,0,0,0,0,0,0,0,0,0,0,0,0,0,0,0,0,0,0,0,0,0,0,0,0,0,0,0,0,0,0,0,0,3.4441,3.4441,0,3.4516,3.4516,3.4517,3.4491,3.4489,3.4488,3.4486,3.4561,3.4565,3.4568,0,0,0,0,0,0,0,0,0,0,0,0,0,3.4272,3.4275,3.444,3.4441,3.4442,3.4515,3.4516,3.4517,3.4491,3.4489,3.4487,3.4485,3.456,3.4564,3.4569,0,0,0,0,0,0,0,0,0,0,0,0,0,3.4346,3.4276,3.444,3.4438,3.4439,3.4515,3.4516,3.4518,3.4492,3.4489,3.4487,3.4484,3.4559,3.4564,3.4569,3.4652,0,0,3.4585,3.4588,0,0,0,0,0,0,0,0,3.4342,3.4352,3.4438,3.4438,3.4439,3.4491,3.4485,3.4563,3.4492,3.4472,3.4486,3.4483,3.454,3.4547,3.4566,3.4655,3.4659,3.4586,3.4589,3.4591,3.4593,0,0,0,0,0,0,0,3.4337,3.4349,3.447,3.4439,3.444,3.4433,3.444,3.4499,3.4519,3.4473,3.4471,3.4481,3.454,3.4561,3.4568,3.466,3.4586,3.459,3.4594,3.4596,3.4818,3.4821,0,0,0,0,0,0,3.4331,3.4345,3.4468,3.4472,3.4383,3.4438,3.4446,3.4477,3.4518,3.4522,3.4483,3.4479,3.4553,3.4562,3.457,3.4668,3.4591,3.4596,3.4599,3.4815,3.4819,3.4822,0,0,0,0,0,0,3.4328,3.4343,3.4465,3.4408,3.4423,3.4443,3.4478,3.448,3.4501,3.4525,3.4528,3.4501,3.4552,3.4563,3.4631,3.467,3.4599,3.4604,3.4812,3.4816,3.482,3.4865,0,0,0,0,0,0,3.4323,3.4342,3.4374,3.4409,3.4426,3.4525,3.448,3.4483,3.451,3.4507,3.4543,3.4547,3.455,3.4624,3.4637,3.4676,3.4608,3.4809,3.4814,3.4819,3.486,3.487,3.4879,0,0,0,0,0,3.4317,3.4383,3.4376,3.4391,3.4467,3.4528,3.4537,3.4541,3.4514,3.4546,3.4561,3.4546,3.4664,3.4631,3.4645,3.4687,3.4806,3.4813,3.4819,3.4856,3.4868,3.4878,0,0,0,0,0,0,3.4352,3.4388,3.438,3.4459,3.4491,3.4523,3.4563,3.4554,3.4593,3.4587,3.4589,3.4598,3.4668,3.4685,3.4647,3.4768,3.4731,3.474,3.4755,3.4766,3.4775,3.4769,3.4612,0,0,0,0,0,3.4369,3.4416,3.4445,3.4512,3.4528,3.4543,3.457,3.457,3.4602,3.4615,3.4635,3.4667,3.4711,3.474,3.4782,3.4863,3.4869,3.4899,3.4908,3.4915,3.4923,3.4965,3.4978,3.4842,3.4842,3.4842,0,0,3.4404,3.443,3.4459,3.452,3.4544,3.4591,3.4555,3.4607,3.4642,3.4623,3.4688,3.4705,3.4739,3.4814,3.4848,3.483,3.4962,3.4923,3.4929,3.4932,3.4972,3.4985,3.4997,3.4846,3.4845,3.4844,0,0,3.4492,3.4517,3.4575,3.46,3.4637,3.4647,3.4661,3.4695,3.4705,3.4771,3.4757,3.4799,3.4875,3.49,3.4923,3.502,3.5006,3.5033,3.5081,3.5122,3.5133,3.5142,3.5175,3.5187,3.5041,3.5041,3.5041,0,3.4531,3.4603,3.4606,3.4659,3.4685,3.4671,3.4729,3.4753,3.4802,3.482,3.4799,3.4894,3.4917,3.4996,3.502,3.5039,3.5054,3.5028,3.5131,3.5141,3.5149,3.518,3.5193,3.5044,3.5044,3.5044,3.5043,0,3.4647,3.4697,3.474,3.4787,3.4819,3.4874,3.4885,3.4916,3.4913,3.4924,3.4991,3.5018,3.5064,3.5083,3.5081,3.5162,3.5149,3.513,3.5093,3.5165,3.5194,3.5206,3.5048,3.5047,3.5046,3.5046,0,0,3.4758,3.4807,3.4822,3.4843,3.4883,3.4921,3.4975,3.5021,3.5047,3.5081,3.5125,3.519,3.5172,3.5198,3.5199,3.5235,3.5308,3.5211,3.5212,3.5226,3.5396,3.5409,3.5422,3.53,3.5302,3.5304,3.5392,0,3.4848,3.4943,3.4948,3.5034,3.5079,3.5066,3.5113,3.5142,3.5154,3.5194,3.5207,3.5252,3.5226,3.5241,3.5277,3.5291,3.5341,3.5285,3.5339,3.5341,3.5329,3.5438,3.5452,3.5534,3.5404,3.5406,3.5407,0,3.4965,3.5003,3.5094,3.5126,3.5145,3.5187,3.5229,3.5267,3.5299,3.5305,3.5334,3.5329,3.5383,3.5345,3.5419,3.5381,3.5403,3.5414,3.5417,3.542,3.5377,3.5442,3.556,3.5572,3.5426,3.5424,3.5423,0,3.5034,3.5108,3.5171,3.519,3.523,3.5259,3.5277,3.5307,3.5334,3.537,3.5387,3.543,3.5452,3.5484,3.549,3.5463,3.5563,3.5526,3.5568,3.5568,3.5589,3.5587,3.571,3.5607,3.5607,3.5606,3.5606,0,3.5132,3.5188,3.5203,3.5241,3.5303,3.5307,3.5368,3.5383,3.541,3.5451,3.5443,3.5481,3.5488,3.5527,3.5532,3.5591,3.5602,3.5607,3.5608,3.5607,3.5606,3.562,3.5614,3.561,3.5609,3.5608,3.5608,0,3.5218,3.5231,3.5299,3.5331,3.5341,3.5384,3.5412,3.5448,3.546,3.5511,3.5523,3.5541,3.5587,3.5597,3.5651,3.5654,3.5724,3.572,3.5713,3.5712,3.5752,3.5747,3.5887,3.5904,3.5792,3.5793,3.5794,0,3.5279,3.5322,3.5359,3.5386,3.5405,3.5449,3.5476,3.5482,3.5511,3.555,3.5581,3.5627,3.5663,3.5737,3.5753,3.5795,3.579,3.5836,3.5796,3.5793,3.5788,3.5784,3.5788,3.5843,3.5844,3.5845,3.5846,0,3.5385,3.5389,3.5429,3.5471,3.5504,3.5537,3.5569,3.5591,3.5602,3.5634,3.5681,3.5709,3.5765,3.5809,3.585,3.5867,3.5858,3.5859,3.587,3.5869,3.5862,3.5864,3.5731,3.5855,3.5854,3.5853,3.5853,3.5852,3.5459,3.5495,3.5527,3.5571,3.5596,3.5625,3.5661,3.5677,3.5716,3.5762,3.5764,3.5814,3.5844,3.5899,3.5919,3.5958,3.5943,3.596,3.5964,3.5968,3.597,3.5858,3.5965,3.5965,3.5965,3.5965,3.5965,0,3.5562,3.5582,3.5623,3.5667,3.5702,3.5692,3.5726,3.5755,3.58,3.5829,3.5865,3.5918,3.5961,3.5982,3.6023,3.6051,3.6047,3.6061,3.6058,3.6062,3.5982,3.5967,3.6063,3.6063,3.6063,3.6063,3.6063,3.6063,3.5619,3.568,3.5688,3.576,3.5779,3.5829,3.5849,3.5876,3.5899,3.5959,3.5995,3.6008,3.6033,3.6077,3.6115,3.612,3.6135,3.6151,3.6153,3.6078,3.6068,3.6058,3.6044,3.6154,3.6155,3.6229,3.623,3.623]},{"header":{"parameterUnit":"m.s-1","parameterCategory":1,"la1":30.2991,"la2":30.254,"lo1":-89.0895,"lo2":-89.0444,"dy":0.0017,"dx":0.0017,"nx":28,"ny":28,"refTime":"2025-05-16T21:00:00:Z","depth":0,"parameterNumber":3,"parameterNumberName":"V-component_of_WINDS"},"data":[0,0,0,0,0,0,0,0,0,0,0,0,0,0,0,0,0,0,0,0,0,0,0,0,0,0,0,0,0,0,0,0,0,0,0,0,0,0,0,0,0,0,0,0,0,0,0,0,0,0,0,0,0,0,0,0,0,0,4.8305,4.8306,0,4.8439,4.844,4.8442,4.8437,4.8435,4.8434,4.8432,4.8562,4.8567,4.8572,0,0,0,0,0,0,0,0,0,0,0,0,0,4.8038,4.8043,4.8304,4.8306,4.8308,4.8438,4.844,4.8442,4.8438,4.8435,4.8433,4.8431,4.856,4.8566,4.8573,0,0,0,0,0,0,0,0,0,0,0,0,0,4.8161,4.8045,4.8304,4.8322,4.8325,4.8438,4.844,4.8442,4.8438,4.8435,4.8433,4.843,4.8558,4.8566,4.8574,4.8676,0,0,4.8597,4.8601,0,0,0,0,0,0,0,0,4.8154,4.8171,4.8317,4.8321,4.8324,4.8419,4.8394,4.8521,4.8439,4.8395,4.8432,4.8429,4.8516,4.8527,4.8558,4.8682,4.8688,4.8598,4.8603,4.8606,4.8608,0,0,0,0,0,0,0,4.8145,4.8165,4.8357,4.8319,4.8324,4.832,4.8335,4.8418,4.8469,4.8398,4.8398,4.8415,4.8517,4.8551,4.8561,4.869,4.8598,4.8605,4.8609,4.8612,4.8904,4.8907,0,0,0,0,0,0,4.8134,4.8158,4.8353,4.8361,4.8231,4.8327,4.8344,4.8391,4.8468,4.8477,4.8417,4.8414,4.8539,4.8552,4.8566,4.8691,4.8606,4.8613,4.8618,4.8901,4.8905,4.8908,0,0,0,0,0,0,4.8128,4.8152,4.8348,4.826,4.8284,4.8335,4.8388,4.8395,4.8428,4.8482,4.849,4.8442,4.8537,4.8555,4.8649,4.8696,4.8617,4.8624,4.8898,4.8903,4.8907,4.8943,0,0,0,0,0,0,4.8121,4.815,4.8191,4.8261,4.8289,4.8431,4.8391,4.84,4.8443,4.844,4.8508,4.8516,4.8536,4.8638,4.8657,4.8705,4.863,4.8894,4.89,4.8905,4.8938,4.8948,4.8957,0,0,0,0,0,4.8111,4.8194,4.8193,4.8217,4.8342,4.8434,4.845,4.8473,4.8446,4.8487,4.8522,4.8514,4.8687,4.8647,4.8669,4.872,4.8891,4.8898,4.8905,4.8933,4.8946,4.8957,0,0,0,0,0,0,4.8126,4.8204,4.8203,4.8312,4.8367,4.8433,4.8486,4.8486,4.8548,4.8542,4.8566,4.8581,4.8676,4.8707,4.8661,4.8823,4.8785,4.8797,4.88,4.8812,4.8822,4.8812,4.8636,0,0,0,0,0,4.8142,4.8213,4.8276,4.8365,4.8393,4.8435,4.8475,4.8489,4.8545,4.8568,4.8609,4.8663,4.8729,4.8772,4.8836,4.8942,4.8956,4.8987,4.8997,4.9005,4.9015,4.9072,4.9087,4.8931,4.8931,4.8931,0,0,4.8176,4.8227,4.8269,4.8369,4.8414,4.8484,4.8454,4.8529,4.8581,4.8578,4.8671,4.8703,4.8764,4.8865,4.8911,4.8894,4.9061,4.9014,4.9019,4.9025,4.9081,4.9096,4.9109,4.8936,4.8935,4.8935,0,0,4.8273,4.8319,4.8399,4.8444,4.8512,4.854,4.8559,4.8626,4.8648,4.8741,4.8741,4.8801,4.8915,4.8959,4.8996,4.911,4.9105,4.9129,4.918,4.9236,4.9248,4.9259,4.93,4.9314,4.9139,4.9139,4.9139,0,4.8306,4.8414,4.8439,4.8516,4.856,4.8563,4.8642,4.8684,4.8768,4.8797,4.8777,4.892,4.8961,4.9072,4.91,4.913,4.9151,4.9122,4.9245,4.9256,4.9267,4.9306,4.9321,4.9142,4.9141,4.9141,4.9141,0,4.8451,4.8526,4.8581,4.8666,4.8715,4.8793,4.8828,4.8874,4.8883,4.8912,4.9006,4.9056,4.913,4.9157,4.9165,4.9269,4.9256,4.924,4.9203,4.9284,4.9321,4.9336,4.9145,4.9144,4.9144,4.9143,0,0,4.8561,4.8659,4.8679,4.8718,4.8793,4.885,4.8927,4.9002,4.9041,4.9099,4.9163,4.926,4.9246,4.9288,4.93,4.935,4.9436,4.9327,4.9329,4.9346,4.9553,4.9565,4.9582,4.9434,4.9437,4.9439,4.9548,0,4.8667,4.8807,4.8832,4.8953,4.9022,4.9025,4.9092,4.9144,4.9172,4.9233,4.9263,4.9332,4.9308,4.9333,4.9382,4.9416,4.9478,4.9408,4.9492,4.9495,4.9478,4.9602,4.9615,4.9716,4.9563,4.9565,4.9567,0,4.8809,4.8873,4.9002,4.9068,4.9098,4.9158,4.9229,4.9287,4.9345,4.9362,4.941,4.9417,4.9495,4.9454,4.9561,4.9512,4.9548,4.9569,4.9574,4.9583,4.9536,4.9614,4.9749,4.9764,4.959,4.9588,4.9587,0,4.8877,4.8995,4.9088,4.912,4.9199,4.9242,4.9276,4.9332,4.9375,4.9436,4.9464,4.9532,4.9569,4.9621,4.9645,4.9613,4.975,4.9711,4.9765,4.9765,4.9794,4.9792,4.9937,4.9817,4.9817,4.9816,4.9816,0,4.8992,4.9071,4.9119,4.9176,4.9264,4.929,4.9376,4.9409,4.9459,4.952,4.9526,4.9583,4.9612,4.9673,4.9693,4.9778,4.9794,4.9809,4.9813,4.9809,4.9807,4.9833,4.9827,4.982,4.9819,4.9819,4.9818,0,4.9083,4.9119,4.922,4.9288,4.9306,4.9368,4.9425,4.9479,4.9507,4.9585,4.9605,4.9648,4.972,4.975,4.9838,4.9851,4.9949,4.9947,4.993,4.9931,4.9984,4.9979,5.015,5.0174,5.0038,5.0039,5.004,0,4.9155,4.9216,4.929,4.9334,4.937,4.9439,4.9484,4.9512,4.9558,4.9629,4.9674,4.9747,4.9807,4.9922,4.996,5.0027,5.0027,5.0082,5.0037,5.0031,5.0028,5.0024,5.003,5.0091,5.0092,5.0093,5.0094,0,4.9278,4.9293,4.9359,4.9432,4.9486,4.9543,4.9599,4.9633,4.9669,4.972,4.9796,4.9843,4.9933,5.0005,5.0074,5.0107,5.0106,5.0108,5.0124,5.0121,5.0108,5.0116,4.9953,5.0104,5.0103,5.0102,5.0102,5.0101,4.9361,4.9416,4.9478,4.9551,4.9596,4.9649,4.9703,4.9739,4.9803,4.9881,4.9893,4.9973,5.0029,5.0122,5.0158,5.0219,5.0205,5.0228,5.0234,5.0239,5.0243,5.0098,5.0232,5.0231,5.0231,5.0231,5.0231,0,4.9485,4.9525,4.9592,4.9672,4.9729,4.9726,4.9788,4.9835,4.9907,4.996,5.0019,5.0105,5.0175,5.0219,5.0288,5.0329,5.033,5.0346,5.0344,5.0351,5.0252,5.0231,5.0344,5.0344,5.0344,5.0344,5.0344,5.0344,4.9556,4.9649,4.9671,4.9785,4.9823,4.9905,4.994,4.9988,5.0031,5.0127,5.0186,5.0215,5.0264,5.0337,5.04,5.0411,5.0436,5.0454,5.0463,5.037,5.0358,5.0347,5.0328,5.0459,5.0459,5.0557,5.0558,5.0559]}]]